Theta_e
301 301 301 302 303 303 304 306 310 308 309 313 310 314 310 306 306 306 308 309 310 312 310 315 316 313 309 305 309 312 311 314 315 314 311 310 311 313 313 315 315 314 315 315
300 300 301 301 302 302 304 305 306 309 310 313 311 306 305 304 306 303 306 306 306 306 308 312 313 311 304 304 308 309 310 313 313 312 312 312 312 309 310 311 313 315 316 314
298 300 300 301 302 302 303 304 309 308 307 302 309 308 306 305 302 302 302 303 303 306 306 306 309 308 304 302 303 304 307 312 313 311 312 311 312 310 308 309 312 313 314 314
297 299 300 301 301 302 302 304 302 301 309 305 305 305 305 305 305 302 302 302 302 304 306 305 305 302 301 302 300 301 304 310 307 308 307 305 306 307 306 307 308 308 309 310
296 298 298 299 300 302 303 304 303 300 300 300 304 302 303 304 301 302 302 302 301 301 302 301 302 300 301 301 300 300 300 303 302 302 302 302 302 302 302 303 303 304 305 306
296 297 298 299 300 301 302 302 303 303 298 301 303 302 302 302 301 300 300 300 301 301 300 299 299 299 299 299 300 300 300 301 301 301 301 302 302 302 302 301 301 301 305 302
295 295 296 298 299 299 300 302 301 303 302 301 301 300 300 301 300 301 299 299 301 299 299 298 298 298 298 299 299 299 299 300 301 303 302 302 302 301 301 301 300 300 300 300
294 295 295 296 297 298 298 299 300 300 302 300 299 300 299 299 299 299 299 299 298 299 298 300 301 301 300 300 299 299 299 300 303 304 303 303 301 301 302 302 301 300 301 300
295 295 295 296 296 297 298 299 299 300 300 300 299 299 299 300 300 299 298 297 298 298 300 300 301 301 301 301 301 298 299 300 303 302 303 302 302 300 299 300 303 299 299 299
296 296 296 296 296 296 296 297 298 299 300 298 298 300 299 297 297 299 297 297 298 298 300 301 301 301 301 300 301 301 302 302 304 304 303 303 300 299 299 301 302 299 298 297
296 296 295 295 295 295 296 296 297 298 299 298 298 297 297 297 297 299 297 298 297 298 299 300 300 300 300 300 300 300 299 299 301 301 302 301 300 300 301 299 297 297 297 297
297 297 296 295 295 294 294 295 296 296 297 298 297 297 297 296 296 297 296 296 297 298 299 298 298 299 298 298 297 296 298 299 298 298 299 300 299 297 296 297 297 297 297 297
297 297 296 295 295 294 294 294 295 295 296 296 297 296 296 297 296 296 297 296 296 297 296 298 298 298 297 298 297 297 297 295 297 297 296 296 296 296 296 296 296 297 297 297
296 295 294 295 295 294 295 295 294 294 295 298 295 296 296 296 296 296 296 296 296 297 297 298 297 298 296 297 297 297 297 295 297 297 296 296 296 296 296 296 296 296 296 297
294 295 295 295 295 294 295 295 295 295 295 298 296 295 295 295 296 297 297 296 297 298 298 298 298 296 296 296 296 297 296 297 297 296 296 296 296 296 296 296 296 296 296 296
297 297 296 296 294 294 295 295 294 294 294 295 298 294 295 295 295 295 295 295 296 297 298 298 297 295 297 297 296 296 295 295 295 296 295 295 295 295 295 295 295 295 295 295
295 296 296 295 294 295 296 295 295 294 295 294 295 295 294 295 296 296 296 295 296 297 298 298 297 297 297 298 297 296 295 295 295 295 295 295 295 296 295 296 296 296 296 296
294 294 294 294 295 295 295 295 294 294 294 294 294 295 293 294 295 297 296 296 295 296 297 296 297 297 297 297 297 296 296 295 295 295 295 295 295 295 295 296 297 296 295 294
295 294 295 296 296 296 295 295 294 294 295 294 293 297 297 294 295 296 296 296 298 294 296 296 296 296 297 297 296 296 295 295 295 295 294 294 294 295 296 297 296 295 294 294
294 295 296 296 295 295 295 295 295 294 295 294 294 292 296 294 295 296 296 294 296 296 296 294 296 296 295 295 295 295 295 295 294 294 295 295 295 295 296 296 296 295 294 294
295 296 295 295 294 294 293 293 293 293 294 294 295 293 294 293 295 296 294 295 292 294 294 295 295 295 295 294 294 294 294 294 295 296 296 296 296 296 296 295 294 294 294 294
295 296 295 294 294 293 292 291 292 293 294 292 294 294 293 293 293 294 293 295 291 294 291 294 294 295 295 294 294 294 294 294 296 296 296 296 296 296 296 295 294 294 294 294
296 295 294 294 293 292 292 292 293 293 293 291 292 292 293 292 293 293 294 294 294 291 293 294 295 295 294 294 294 294 294 295 295 295 295 296 296 296 296 295 294 294 294 294
295 295 293 294 292 293 292 292 293 293 292 292 293 292 293 292 293 294 294 293 290 294 293 294 295 295 294 294 294 295 295 295 295 295 295 295 295 295 295 295 294 294 294 295
295 294 294 292 292 291 291 291 291 292 292 292 293 292 292 292 293 291 292 291 293 293 294 295 294 294 294 294 294 294 294 294 294 294 294 295 295 295 295 295 295 295 295 294
294 294 294 292 291 292 291 292 291 292 292 293 293 292 293 294 293 292 293 294 293 295 293 293 294 294 294 294 294 294 294 294 294 294 294 295 295 295 294 294 295 295 294 294
292 293 293 293 293 293 293 293 293 293 292 294 294 296 295 292 293 293 293 294 295 295 294 294 294 294 294 294 294 294 294 294 294 294 294 294 294 294 294 294 294 294 294 294
Wind_Speed
10 12 13 12 11 9 4 3 1 8 2 2 5 3 3 2 1 5 3 4 4 2 2 3 2 2 5 11 4 2 4 3 3 2 4 2 2 2 3 4 1 0 3 1
10 12 13 13 11 9 3 3 3 6 4 2 4 5 4 5 2 5 3 2 3 2 2 1 2 3 3 9 6 4 5 1 3 4 4 3 3 3 3 2 2 8 6 1
10 12 13 13 12 9 3 3 1 7 10 6 6 7 4 4 5 4 5 3 1 2 2 4 4 2 3 6 8 5 2 2 5 5 4 4 2 2 4 4 4 8 8 5
9 11 12 13 11 7 2 4 3 3 3 6 8 4 3 5 3 3 4 3 4 1 2 2 3 2 1 4 11 3 2 3 3 5 5 4 7 9 7 8 9 7 7 6
12 13 12 13 10 5 2 3 5 7 6 2 4 3 2 4 5 1 2 4 3 2 3 3 3 1 2 2 4 3 4 1 2 3 1 4 8 7 7 6 6 9 8 7
11 11 10 11 10 6 3 7 12 6 2 3 2 2 4 5 9 5 5 7 5 5 5 3 2 3 1 1 3 2 2 1 1 2 4 7 8 3 3 3 1 3 4 5
10 12 12 10 10 9 5 9 8 4 3 2 3 7 6 9 2 5 4 4 2 2 3 6 8 8 6 6 6 5 0 1 1 3 5 4 6 2 2 5 4 3 4 6
10 12 13 14 13 13 6 6 5 5 5 10 11 11 12 11 9 6 6 3 3 2 4 2 4 2 2 3 7 2 2 2 2 3 4 4 6 5 4 4 4 3 1 4
9 10 11 12 13 14 9 10 9 7 13 3 9 9 7 5 4 4 2 2 2 3 2 2 3 2 2 3 3 5 4 1 3 2 3 4 5 5 1 3 7 5 2 6
8 10 10 11 11 10 11 9 7 6 9 6 8 3 4 4 3 3 3 2 1 3 1 2 2 2 1 2 3 3 3 3 6 6 5 4 5 4 6 5 3 6 12 12
7 9 9 9 9 9 9 12 7 5 7 10 7 6 6 6 4 3 5 4 2 2 1 1 2 2 2 3 1 2 3 3 4 3 4 6 8 3 5 10 19 15 14 19
6 6 7 9 8 8 8 11 11 11 8 12 10 9 8 7 6 8 5 0 3 3 2 1 2 2 2 1 2 3 4 6 2 4 1 4 7 13 15 11 17 19 19 14
5 5 6 7 8 8 8 9 11 16 16 13 8 6 7 9 7 6 4 4 3 3 4 3 2 2 2 4 4 3 5 5 4 4 8 17 14 18 12 7 10 13 12 11
4 5 5 6 7 8 9 8 9 8 8 5 3 8 7 9 8 4 4 7 8 8 5 3 2 2 4 2 2 7 7 4 5 10 17 16 18 8 5 12 12 13 13 12
4 4 5 5 6 7 9 10 12 10 4 4 5 8 5 6 9 8 6 5 6 4 2 2 2 3 4 2 3 9 9 6 5 6 8 11 18 15 14 17 17 17 15 14
3 3 3 4 5 4 4 3 8 9 6 4 3 4 6 5 8 8 7 7 7 5 3 3 3 4 4 3 4 11 15 15 18 19 14 15 18 20 20 19 17 15 12 13
2 1 1 2 2 3 4 4 3 5 4 2 4 3 5 6 6 6 5 7 4 4 3 4 4 5 7 3 5 11 12 13 14 14 14 15 14 13 10 13 12 8 6 8
3 2 2 4 3 4 4 3 2 4 2 1 3 2 3 6 3 3 4 3 5 4 3 2 4 3 6 6 22 23 15 14 15 17 13 18 16 15 15 12 8 8 8 10
4 3 4 2 1 1 1 1 3 4 1 1 1 3 3 5 3 3 3 4 3 2 3 4 4 4 7 16 19 16 16 12 12 14 16 15 15 12 11 10 8 9 10 11
6 7 3 3 2 3 1 1 1 1 1 2 2 3 2 3 4 3 4 1 1 2 2 2 4 7 25 25 25 20 18 15 14 14 13 10 12 11 10 9 9 11 12 13
11 5 3 8 6 1 1 1 1 1 1 3 3 6 3 2 2 2 1 2 1 2 2 3 3 5 11 8 10 9 10 11 13 14 14 13 9 11 11 9 9 10 11 12
9 5 9 7 2 1 1 1 1 3 2 5 4 5 5 2 3 2 2 1 1 3 2 3 4 6 15 11 7 9 10 11 11 12 11 11 12 15 14 13 11 11 13 14
11 4 4 4 2 2 5 5 3 3 6 8 7 5 5 3 4 2 3 4 4 1 3 4 6 12 13 10 16 12 11 12 13 13 14 13 14 16 18 18 17 18 19 20
4 5 3 4 4 5 5 4 2 3 4 11 10 6 3 4 5 3 3 1 1 3 5 7 8 16 19 14 11 7 5 6 8 11 17 18 18 18 19 21 22 23 24 23
5 5 4 6 7 6 3 8 3 3 7 15 6 4 5 3 3 4 2 3 5 6 6 5 10 15 17 16 13 14 11 9 11 10 15 18 23 23 23 24 24 24 22 24
6 6 3 5 3 4 6 4 7 8 9 8 2 3 3 5 3 5 8 4 8 7 7 18 19 17 19 22 19 16 16 18 16 16 19 19 17 19 22 24 25 21 22 23
4 4 11 9 4 4 3 9 11 10 12 4 3 4 7 3 4 5 5 7 14 21 16 19 26 26 26 27 29 25 24 24 20 22 22 23 26 27 26 23 18 22 25 25
Wind_Direction
7 8 4 3 4 6 19 126 146 360 93 74 54 88 92 103 41 45 77 88 76 70 46 69 102 108 33 352 310 30 18 316 278 359 353 337 331 39 355 275 182 283 311 290
6 3 3 360 2 5 28 109 109 28 144 153 107 118 94 64 46 31 34 78 20 93 93 172 134 118 68 16 24 22 359 199 272 184 165 159 65 53 58 26 281 257 276 69
7 4 3 1 360 360 30 109 140 39 61 69 115 132 118 118 53 67 52 65 84 141 117 45 125 99 38 7 23 357 229 278 278 299 21 343 268 312 328 299 266 289 261 303
13 5 5 4 2 6 29 69 84 88 76 44 98 91 108 130 120 81 51 92 61 118 147 130 107 86 31 58 2 38 38 264 303 293 299 290 276 286 285 266 279 266 341 328
20 15 10 5 10 6 52 104 133 87 93 73 105 23 87 132 120 15 77 117 71 65 101 43 143 26 51 31 359 22 356 172 331 279 349 303 280 278 269 260 263 265 280 261
28 18 18 17 15 17 95 111 125 117 56 115 181 104 133 146 140 62 82 132 128 102 76 17 316 259 233 341 318 338 359 290 240 235 316 303 247 212 185 121 72 290 277 63
37 31 28 31 39 57 82 133 134 121 112 93 92 125 113 126 97 130 113 94 134 99 328 95 81 85 110 116 21 232 153 216 274 305 301 239 85 102 115 110 74 69 105 104
49 41 39 41 46 57 56 118 120 110 107 122 117 119 117 113 104 100 107 78 92 51 136 157 143 134 153 80 38 120 197 244 229 279 262 320 177 176 192 217 139 74 15 302
57 50 47 49 51 55 48 79 97 103 122 158 134 121 146 135 126 138 106 77 81 115 153 158 192 181 93 168 140 72 162 16 275 212 265 272 101 138 213 193 233 142 4 310
64 58 46 46 50 58 57 73 88 104 103 137 128 127 151 128 120 107 145 148 153 52 159 130 162 157 357 213 198 174 190 216 239 245 261 269 122 72 140 235 79 284 303 297
73 61 53 48 49 57 62 66 77 111 100 129 127 122 130 133 158 168 151 155 114 108 153 153 138 186 153 228 196 215 237 236 218 210 236 250 165 158 226 327 303 294 277 298
87 67 51 46 48 59 69 89 91 98 105 131 124 120 130 135 133 129 143 54 112 140 122 133 134 167 181 196 238 203 248 229 294 238 334 150 191 286 291 293 287 291 289 282
105 74 45 40 48 59 69 91 112 104 104 104 108 111 156 156 130 135 156 171 147 124 124 118 101 192 181 193 216 251 226 221 245 275 239 264 282 284 282 288 285 294 286 279
114 81 56 50 50 59 60 79 87 107 116 111 137 145 137 166 182 175 130 145 138 144 124 104 134 213 212 212 325 256 282 178 243 256 272 279 268 274 267 301 285 296 285 270
114 86 69 67 56 68 68 78 76 74 105 115 139 163 189 201 195 189 179 161 164 146 144 165 209 168 187 201 268 248 205 227 223 263 280 280 280 289 285 292 285 285 276 260
113 113 88 45 38 76 94 81 63 53 79 125 140 175 184 163 170 185 196 209 198 178 188 198 214 203 200 219 240 261 247 246 249 268 282 280 282 290 289 285 288 285 264 263
197 172 47 41 99 96 97 104 76 31 45 130 107 164 188 180 167 167 166 179 184 186 205 223 222 202 200 234 251 263 245 248 257 267 278 277 273 279 288 286 293 278 257 258
181 160 115 114 109 108 100 88 6 19 30 117 126 151 166 173 171 150 168 164 188 198 221 209 223 214 221 250 245 265 270 267 267 273 268 270 278 271 279 281 265 257 269 279
195 161 143 124 139 95 128 216 287 295 265 157 146 181 162 163 145 127 141 171 218 209 232 221 208 227 232 240 253 267 268 260 272 282 281 273 265 262 259 248 246 262 278 283
171 161 156 121 119 132 162 304 310 357 61 174 162 164 147 150 158 131 143 170 222 239 190 175 233 256 261 266 269 273 273 270 275 277 280 265 249 240 237 244 255 268 280 284
164 169 143 136 132 82 18 12 26 341 284 212 199 199 163 167 182 138 183 148 100 249 168 240 248 264 259 275 290 271 255 265 268 267 265 251 234 213 219 243 262 272 285 292
170 173 138 142 153 133 47 308 257 217 235 185 181 176 185 165 174 165 158 165 172 251 151 240 249 249 266 289 296 295 278 264 258 269 260 239 231 222 232 246 257 274 281 284
160 178 146 150 153 174 191 195 218 233 190 180 166 149 163 164 175 117 172 204 227 16 230 236 240 268 282 271 298 285 263 261 264 267 259 247 244 240 242 249 259 269 278 283
187 163 174 210 191 230 198 208 213 195 178 163 157 140 153 160 166 155 219 173 199 232 233 236 250 263 288 293 281 253 258 273 284 287 256 251 252 252 253 257 264 273 282 291
195 176 210 207 234 250 251 229 234 181 169 159 149 123 166 162 192 197 149 194 234 226 234 248 254 284 287 293 283 266 252 272 276 288 293 278 257 258 264 269 272 277 283 289
200 206 181 212 239 247 244 249 232 200 167 169 181 153 184 209 210 185 210 203 226 243 231 259 275 282 293 294 292 284 273 272 285 287 286 274 264 267 278 283 278 273 289 288
208 196 215 223 233 245 264 238 233 185 164 207 222 232 220 124 220 218 203 224 249 272 266 271 284 290 298 296 295 286 281 275 276 284 280 282 280 280 281 274 277 287 286 285